This demonstration page uses our WeatherBlox Daily Observations layout. Learn more.

Left ArrowRight Arrow

Hourly Observations for October 4, 2021

Temp ( °F °C ) Dew Point ( °F °C ) Humidity (%) Winds ( mph kmh ) Pressure ( in mb ) Visibility ( mi km ) Precip ( " mm )
12:53 am 00:53 Clear 62 16.7 38 3.3 41 41 N N/A 29.91 1013 10 16 N/A
1:53 am 01:53 Clear 60 15.6 38 3.3 44 44 N N/A 29.90 1013 10 16 N/A
2:53 am 02:53 Clear 59 15 39 3.9 48 48 N N/A 29.90 1013 10 16 N/A
3:53 am 03:53 Clear 57 13.9 37 2.8 47 47 N N/A 29.90 1012 10 16 N/A
4:53 am 04:53 Clear 57 13.9 37 2.8 47 47 N N/A 29.90 1013 10 16 N/A
5:53 am 05:53 Clear 55 12.8 40 4.4 57 57 N N/A 29.91 1013 10 16 N/A
6:53 am 06:53 Clear 53 11.7 39 3.9 59 59 N N/A 29.91 1013 10 16 N/A
7:53 am 07:53 Sunny 56 13.3 41 5 57 57 N N/A 29.92 1013 10 16 N/A
8:53 am 08:53 Sunny 64 17.8 41 5 43 43 N N/A 29.92 1013 10 16 N/A
9:53 am 09:53 Sunny 72 22.2 41 5 33 33 N N/A 29.92 1013 10 16 N/A
10:53 am 10:53 Sunny 78 25.6 38 3.3 24 24 N N/A 29.91 1013 10 16 N/A
11:53 am 11:53 Sunny 81 27.2 38 3.3 21 21 VRB 3 6 29.89 1012 10 16 N/A
12:53 pm 12:53 Sunny 83 28.3 38 3.3 20 20 SW 5 7 29.88 1012 10 16 N/A
1:53 pm 13:53 Sunny 86 30 38 3.3 18 18 SW 9 15 29.85 1011 10 16 N/A
2:53 pm 14:53 Sunny 88 31.1 36 2.2 16 16 S 7 11 29.82 1010 10 16 N/A
3:53 pm 15:53 Sunny 89 31.7 37 2.8 16 16 S 8 13 29.81 1009 10 16 N/A
4:53 pm 16:53 Sunny 89 31.7 34 1.1 14 14 S 10 17 29.79 1009 10 16 N/A
5:53 pm 17:53 Sunny 87 30.6 35 1.7 16 16 S 10 17 29.78 1009 10 16 N/A
6:53 pm 18:53 Clear 83 28.3 38 3.3 20 20 S 7 11 29.79 1009 10 16 N/A
7:53 pm 19:53 Clear 81 27.2 40 4.4 23 23 S 8 13 29.80 1009 10 16 N/A
8:53 pm 20:53 Clear 72 22.2 39 3.9 30 30 N N/A 29.81 1010 10 16 N/A
9:53 pm 21:53 Clear 69 20.6 39 3.9 33 33 N 3 6 29.83 1010 10 16 N/A
10:53 pm 22:53 Clear 66 18.9 40 4.4 39 39 N N/A 29.83 1010 10 16 N/A
11:53 pm 23:53 Clear 63 17.2 41 5 45 45 N N/A 29.83 1010 10 16 N/A

Powered by AerisWeather